Time,TemperatureF,DewpointF,PressureIn,WindDirection,WindDirectionDegrees,WindSpeedMPH,WindSpeedGustMPH,Humidity,HourlyPrecipIn,Conditions,Clouds,dailyrainin,SoftwareType,DateUTC
2013-01-31 00:01:00,55.4,52.5,29.04,SE,135,0.0,0.0,90,0.22,,,0.00,WeatherDisplay:10.37,2013-01-31 05:01:00,
2013-01-31 00:02:00,55.4,52.5,29.04,SSE,158,0.0,0.0,90,0.22,,,0.00,WeatherDisplay:10.37,2013-01-31 05:02:00,
2013-01-31 00:03:00,55.4,52.5,29.05,SSE,158,0.0,0.0,90,0.22,,,0.00,WeatherDisplay:10.37,2013-01-31 05:03:00,
2013-01-31 00:08:00,55.4,52.5,29.05,SSE,158,2.3,2.3,90,0.22,CLR,CLR,0.04,WeatherDisplay:10.37,2013-01-31 05:08:00,
2013-01-31 00:13:00,55.2,52.3,29.06,SSW,202,3.5,3.5,90,0.27,RA,RA,0.06,WeatherDisplay:10.37,2013-01-31 05:13:00,
2013-01-31 00:18:00,55.2,52.3,29.05,West,270,0.0,0.0,90,0.27,RA,RA,0.08,WeatherDisplay:10.37,2013-01-31 05:18:00,
2013-01-31 00:23:00,55.2,52.3,29.05,West,270,4.6,4.6,90,0.24,RA,RA,0.10,WeatherDisplay:10.37,2013-01-31 05:23:00,
2013-01-31 00:29:00,55.2,52.3,29.06,SW,225,9.2,9.2,90,0.24,RA,RA,0.12,WeatherDisplay:10.37,2013-01-31 05:29:00,
2013-01-31 00:34:00,55.2,52.3,29.06,SW,225,4.7,4.7,90,0.22,RA,RA,0.12,WeatherDisplay:10.37,2013-01-31 05:34:00,
2013-01-31 00:39:00,55.0,52.2,29.07,SSE,158,6.9,6.9,90,0.20,CLR,CLR,0.12,WeatherDisplay:10.37,2013-01-31 05:39:00,
2013-01-31 00:44:00,54.7,51.8,29.07,SSW,202,7.4,7.4,90,0.16,CLR,CLR,0.12,WeatherDisplay:10.37,2013-01-31 05:44:00,
2013-01-31 00:49:00,54.7,51.8,29.05,SSW,202,5.8,5.8,90,0.16,RA,RA,0.14,WeatherDisplay:10.37,2013-01-31 05:49:00,
2013-01-31 00:54:00,54.5,51.6,29.04,SSW,202,6.0,6.0,90,0.16,RA,RA,0.14,WeatherDisplay:10.37,2013-01-31 05:54:00,
2013-01-31 01:00:00,54.3,51.4,29.02,South,180,4.6,4.6,90,0.14,CLR,CLR,0.14,WeatherDisplay:10.37,2013-01-31 06:00:00,
2013-01-31 01:05:00,54.3,51.4,29.01,SSW,202,3.5,3.5,90,0.14,CLR,CLR,0.14,WeatherDisplay:10.37,2013-01-31 06:05:00,
2013-01-31 01:10:00,54.1,51.3,29.00,SSW,202,3.5,3.5,90,0.10,CLR,CLR,0.14,WeatherDisplay:10.37,2013-01-31 06:10:00,
2013-01-31 01:15:00,54.1,51.3,29.00,ESE,112,2.3,2.3,90,0.08,CLR,CLR,0.14,WeatherDisplay:10.37,2013-01-31 06:15:00,
2013-01-31 01:21:00,54.0,51.1,29.02,West,270,0.0,0.0,90,0.06,CLR,CLR,0.14,WeatherDisplay:10.37,2013-01-31 06:21:00,
2013-01-31 01:26:00,53.8,50.9,29.02,SSW,202,0.0,0.0,90,0.04,CLR,CLR,0.14,WeatherDisplay:10.37,2013-01-31 06:26:00,
2013-01-31 01:31:00,53.8,50.6,29.03,South,180,0.0,0.0,89,0.02,CLR,CLR,0.14,WeatherDisplay:10.37,2013-01-31 06:31:00,
2013-01-31 01:36:00,53.4,50.3,29.02,South,180,0.0,0.0,89,0.04,RA,RA,0.16,WeatherDisplay:10.37,2013-01-31 06:36:00,
2013-01-31 01:41:00,53.4,50.3,29.01,SSW,202,3.1,3.1,89,0.04,RA,RA,0.16,WeatherDisplay:10.37,2013-01-31 06:41:00,
2013-01-31 01:47:00,53.4,50.3,29.04,SSW,202,4.6,4.6,89,0.02,,,0.16,WeatherDisplay:10.37,2013-01-31 06:47:00,
2013-01-31 01:52:00,53.4,50.3,29.02,SW,225,3.5,3.5,89,0.02,CLR,CLR,0.16,WeatherDisplay:10.37,2013-01-31 06:52:00,
2013-01-31 01:57:00,53.4,50.3,29.02,SSW,202,3.5,3.5,89,0.02,CLR,CLR,0.16,WeatherDisplay:10.37,2013-01-31 06:57:00,
2013-01-31 02:02:00,53.4,50.3,29.01,SW,225,0.0,0.0,89,0.04,RA,RA,0.18,WeatherDisplay:10.37,2013-01-31 07:02:00,
2013-01-31 02:08:00,53.4,50.3,29.01,South,180,3.5,3.5,89,0.04,RA,RA,0.18,WeatherDisplay:10.37,2013-01-31 07:08:00,
2013-01-31 02:13:00,53.4,50.3,29.01,SSW,202,5.8,5.8,89,0.04,CLR,CLR,0.18,WeatherDisplay:10.37,2013-01-31 07:13:00,
2013-01-31 02:18:00,53.4,50.3,29.01,SSW,202,2.3,2.3,89,0.04,CLR,CLR,0.18,WeatherDisplay:10.37,2013-01-31 07:18:00,
2013-01-31 02:23:00,53.4,50.3,29.00,West,270,0.0,0.0,89,0.04,CLR,CLR,0.18,WeatherDisplay:10.37,2013-01-31 07:23:00,
2013-01-31 02:28:00,53.4,50.3,29.01,WSW,248,4.6,4.6,89,0.04,CLR,CLR,0.18,WeatherDisplay:10.37,2013-01-31 07:28:00,
2013-01-31 02:34:00,53.4,50.3,29.04,WSW,248,21.9,21.9,89,0.04,CLR,CLR,0.18,WeatherDisplay:10.37,2013-01-31 07:34:00,
2013-01-31 02:39:00,52.5,49.4,29.04,WSW,248,6.0,6.0,89,0.02,CLR,CLR,0.18,WeatherDisplay:10.37,2013-01-31 07:39:00,
2013-01-31 02:44:00,52.0,48.8,29.03,SW,225,13.8,13.8,89,0.02,CLR,CLR,0.18,WeatherDisplay:10.37,2013-01-31 07:44:00,
2013-01-31 02:49:00,51.4,48.0,29.03,SW,225,11.4,11.4,88,0.02,CLR,CLR,0.18,WeatherDisplay:10.37,2013-01-31 07:49:00,
2013-01-31 02:54:00,51.1,47.3,29.02,SSW,202,15.0,15.0,87,0.02,CLR,CLR,0.18,WeatherDisplay:10.37,2013-01-31 07:54:00,
2013-01-31 03:00:00,50.9,47.2,29.02,NNW,338,11.5,11.5,87,0.00,CLR,CLR,0.18,WeatherDisplay:10.37,2013-01-31 08:00:00,
2013-01-31 03:05:00,50.7,46.7,29.02,SW,225,8.3,8.3,86,0.00,CLR,CLR,0.18,WeatherDisplay:10.37,2013-01-31 08:05:00,
2013-01-31 03:10:00,50.7,46.4,29.05,SW,225,16.1,16.1,85,0.00,CLR,CLR,0.18,WeatherDisplay:10.37,2013-01-31 08:10:00,
2013-01-31 03:15:00,50.7,46.1,29.04,South,180,11.5,11.5,84,0.00,CLR,CLR,0.18,WeatherDisplay:10.37,2013-01-31 08:15:00,
2013-01-31 03:21:00,50.7,45.7,29.06,SW,225,22.3,22.3,83,0.00,CLR,CLR,0.18,WeatherDisplay:10.37,2013-01-31 08:21:00,
2013-01-31 03:26:00,50.4,43.8,29.06,SSW,202,18.4,18.4,78,0.00,CLR,CLR,0.18,WeatherDisplay:10.37,2013-01-31 08:26:00,
2013-01-31 03:31:00,49.8,41.9,29.08,South,180,11.5,11.5,74,0.00,CLR,CLR,0.18,WeatherDisplay:10.37,2013-01-31 08:31:00,
2013-01-31 03:36:00,49.1,40.8,29.07,NNW,338,13.8,13.8,73,0.00,CLR,CLR,0.18,WeatherDisplay:10.37,2013-01-31 08:36:00,
2013-01-31 03:41:00,48.7,39.8,29.07,West,270,24.8,24.8,71,0.00,CLR,CLR,0.18,WeatherDisplay:10.37,2013-01-31 08:41:00,
2013-01-31 03:47:00,48.4,39.8,29.08,South,180,12.7,12.7,72,0.00,CLR,CLR,0.18,WeatherDisplay:10.37,2013-01-31 08:47:00,
2013-01-31 03:52:00,48.0,39.1,29.08,WSW,248,13.8,13.8,71,0.00,CLR,CLR,0.18,WeatherDisplay:10.37,2013-01-31 08:52:00,
2013-01-31 03:57:00,47.8,39.2,29.08,WSW,248,15.0,15.0,72,0.00,CLR,CLR,0.18,WeatherDisplay:10.37,2013-01-31 08:57:00,
2013-01-31 04:02:00,47.5,38.9,29.09,WSW,248,6.9,6.9,72,0.00,CLR,CLR,0.18,WeatherDisplay:10.37,2013-01-31 09:02:00,
2013-01-31 04:08:00,47.1,38.6,29.09,WSW,248,15.0,15.0,72,0.00,CLR,CLR,0.18,WeatherDisplay:10.37,2013-01-31 09:08:00,
2013-01-31 04:13:00,46.9,38.4,29.10,WSW,248,9.2,9.2,72,0.00,CLR,CLR,0.18,WeatherDisplay:10.37,2013-01-31 09:13:00,
2013-01-31 04:18:00,46.8,37.9,29.10,SW,225,9.8,9.8,71,0.00,CLR,CLR,0.18,WeatherDisplay:10.37,2013-01-31 09:18:00,
2013-01-31 04:23:00,46.6,37.3,29.09,SW,225,19.9,19.9,70,0.00,CLR,CLR,0.18,WeatherDisplay:10.37,2013-01-31 09:23:00,
2013-01-31 04:28:00,46.2,36.2,29.09,South,180,17.3,17.3,68,0.00,CLR,CLR,0.18,WeatherDisplay:10.37,2013-01-31 09:28:00,
2013-01-31 04:34:00,46.2,35.9,29.09,ESE,112,9.2,9.2,67,0.00,CLR,CLR,0.18,WeatherDisplay:10.37,2013-01-31 09:34:00,
2013-01-31 04:39:00,46.0,35.3,29.10,SSW,202,15.0,15.0,66,0.00,CLR,CLR,0.18,WeatherDisplay:10.37,2013-01-31 09:39:00,
2013-01-31 04:44:00,46.0,35.7,29.12,SSW,202,16.5,16.5,67,0.00,CLR,CLR,0.18,WeatherDisplay:10.37,2013-01-31 09:44:00,
2013-01-31 04:49:00,45.7,35.3,29.12,SSW,202,7.2,7.2,67,0.00,CLR,CLR,0.18,WeatherDisplay:10.37,2013-01-31 09:49:00,
2013-01-31 04:54:00,45.5,35.5,29.12,SSW,202,13.9,13.9,68,0.00,CLR,CLR,0.18,WeatherDisplay:10.37,2013-01-31 09:54:00,
2013-01-31 05:00:00,45.1,35.2,29.12,WSW,248,24.2,24.2,68,0.00,CLR,CLR,0.18,WeatherDisplay:10.37,2013-01-31 10:00:00,
2013-01-31 05:05:00,45.1,35.2,29.14,West,270,27.6,27.6,68,0.00,CLR,CLR,0.18,WeatherDisplay:10.37,2013-01-31 10:05:00,
2013-01-31 05:10:00,45.0,35.0,29.15,WNW,292,7.8,7.8,68,0.00,CLR,CLR,0.18,WeatherDisplay:10.37,2013-01-31 10:10:00,
2013-01-31 05:15:00,44.4,33.8,29.15,SW,225,29.9,29.9,66,0.00,CLR,CLR,0.18,WeatherDisplay:10.37,2013-01-31 10:15:00,
2013-01-31 05:20:00,44.1,33.0,29.17,West,270,23.0,23.0,65,0.00,CLR,CLR,0.18,WeatherDisplay:10.37,2013-01-31 10:20:00,
2013-01-31 05:26:00,43.5,32.1,29.17,SSE,158,20.7,20.7,64,0.00,CLR,CLR,0.18,WeatherDisplay:10.37,2013-01-31 10:26:00,
2013-01-31 05:31:00,43.2,31.8,29.19,SSW,202,18.4,18.4,64,0.00,CLR,CLR,0.18,WeatherDisplay:10.37,2013-01-31 10:31:00,
2013-01-31 05:36:00,42.8,31.5,29.20,SW,225,18.4,18.4,64,0.00,CLR,CLR,0.18,WeatherDisplay:10.37,2013-01-31 10:36:00,
2013-01-31 05:41:00,42.4,31.1,29.20,WSW,248,15.2,15.2,64,0.00,CLR,CLR,0.18,WeatherDisplay:10.37,2013-01-31 10:41:00,
2013-01-31 05:46:00,42.1,30.4,29.21,SSW,202,16.1,16.1,63,0.00,CLR,CLR,0.18,WeatherDisplay:10.37,2013-01-31 10:46:00,
2013-01-31 05:52:00,41.9,29.8,29.21,WNW,292,19.6,19.6,62,0.00,CLR,CLR,0.18,WeatherDisplay:10.37,2013-01-31 10:52:00,
2013-01-31 05:57:00,41.7,29.6,29.22,WSW,248,15.0,15.0,62,0.00,CLR,CLR,0.18,WeatherDisplay:10.37,2013-01-31 10:57:00,
2013-01-31 06:02:00,41.5,29.5,29.23,SW,225,9.2,9.2,62,0.00,CLR,CLR,0.18,WeatherDisplay:10.37,2013-01-31 11:02:00,
2013-01-31 06:07:00,41.5,29.9,29.24,SSW,202,15.0,15.0,63,0.00,CLR,CLR,0.18,WeatherDisplay:10.37,2013-01-31 11:07:00,
2013-01-31 06:12:00,41.5,29.9,29.25,SSW,202,18.4,18.4,63,0.00,CLR,CLR,0.18,WeatherDisplay:10.37,2013-01-31 11:12:00,
2013-01-31 06:17:00,41.5,30.3,29.25,West,270,8.1,8.1,64,0.00,CLR,CLR,0.18,WeatherDisplay:10.37,2013-01-31 11:17:00,
2013-01-31 06:22:00,41.5,30.3,29.26,West,270,21.9,21.9,64,0.00,CLR,CLR,0.18,WeatherDisplay:10.37,2013-01-31 11:22:00,
2013-01-31 06:28:00,41.2,29.1,29.26,SSW,202,16.1,16.1,62,0.00,CLR,CLR,0.18,WeatherDisplay:10.37,2013-01-31 11:28:00,
2013-01-31 06:33:00,41.2,29.1,29.27,SSW,202,21.0,21.0,62,0.00,CLR,CLR,0.18,WeatherDisplay:10.37,2013-01-31 11:33:00,
2013-01-31 06:38:00,41.0,29.0,29.28,WNW,292,6.9,6.9,62,0.00,CLR,CLR,0.18,WeatherDisplay:10.37,2013-01-31 11:38:00,
2013-01-31 06:43:00,40.8,29.2,29.29,WSW,248,4.7,4.7,63,0.00,CLR,CLR,0.18,WeatherDisplay:10.37,2013-01-31 11:43:00,
2013-01-31 06:48:00,40.8,29.2,29.29,WSW,248,9.2,9.2,63,0.00,CLR,CLR,0.18,WeatherDisplay:10.37,2013-01-31 11:48:00,
2013-01-31 06:53:00,40.6,28.6,29.30,SW,225,15.6,15.6,62,0.00,CLR,CLR,0.18,WeatherDisplay:10.37,2013-01-31 11:53:00,
2013-01-31 06:58:00,40.3,27.9,29.30,WSW,248,18.4,18.4,61,0.00,CLR,CLR,0.18,WeatherDisplay:10.37,2013-01-31 11:58:00,
2013-01-31 07:04:00,39.9,26.3,29.30,SW,225,12.7,12.7,58,0.00,CLR,CLR,0.18,WeatherDisplay:10.37,2013-01-31 12:04:00,
2013-01-31 07:09:00,39.7,26.2,29.31,West,270,20.7,20.7,58,0.00,CLR,CLR,0.18,WeatherDisplay:10.37,2013-01-31 12:09:00,
2013-01-31 07:14:00,39.4,26.2,29.31,SW,225,18.4,18.4,59,0.00,CLR,CLR,0.18,WeatherDisplay:10.37,2013-01-31 12:14:00,
2013-01-31 07:19:00,39.0,25.9,29.31,SW,225,9.2,9.2,59,0.00,CLR,CLR,0.18,WeatherDisplay:10.37,2013-01-31 12:19:00,
2013-01-31 07:24:00,38.8,25.7,29.31,WSW,248,15.0,15.0,59,0.00,CLR,CLR,0.18,WeatherDisplay:10.37,2013-01-31 12:24:00,
2013-01-31 07:30:00,38.8,25.7,29.32,SSW,202,16.1,16.1,59,0.00,CLR,CLR,0.18,WeatherDisplay:10.37,2013-01-31 12:30:00,
2013-01-31 07:35:00,38.8,25.3,29.32,SSW,202,18.5,18.5,58,0.00,CLR,CLR,0.18,WeatherDisplay:10.37,2013-01-31 12:35:00,
2013-01-31 07:40:00,38.7,25.1,29.32,SW,225,16.1,16.1,58,0.00,CLR,CLR,0.18,WeatherDisplay:10.37,2013-01-31 12:40:00,
2013-01-31 07:45:00,38.5,25.0,29.32,SSW,202,17.3,17.3,58,0.00,CLR,CLR,0.18,WeatherDisplay:10.37,2013-01-31 12:45:00,
2013-01-31 07:50:00,38.5,25.0,29.33,SSE,158,9.2,9.2,58,0.00,CLR,CLR,0.18,WeatherDisplay:10.37,2013-01-31 12:50:00,
2013-01-31 07:55:00,38.5,25.4,29.33,WNW,292,20.7,20.7,59,0.00,CLR,CLR,0.18,WeatherDisplay:10.37,2013-01-31 12:55:00,
2013-01-31 08:00:00,38.5,25.0,29.33,ESE,112,19.6,19.6,58,0.00,CLR,CLR,0.18,WeatherDisplay:10.37,2013-01-31 13:00:00,
2013-01-31 08:05:00,38.5,24.6,29.34,WSW,248,15.0,15.0,57,0.00,CLR,CLR,0.18,WeatherDisplay:10.37,2013-01-31 13:05:00,
2013-01-31 08:10:00,38.8,24.9,29.34,WSW,248,28.8,28.8,57,0.00,CLR,CLR,0.18,WeatherDisplay:10.37,2013-01-31 13:10:00,
2013-01-31 08:16:00,39.0,25.1,29.34,WSW,248,15.9,15.9,57,0.00,CLR,CLR,0.18,WeatherDisplay:10.37,2013-01-31 13:16:00,
2013-01-31 08:21:00,39.6,25.1,29.33,SW,225,18.4,18.4,56,0.00,CLR,CLR,0.18,WeatherDisplay:10.37,2013-01-31 13:21:00,
2013-01-31 08:26:00,39.9,25.0,29.33,West,270,15.0,15.0,55,0.00,CLR,CLR,0.18,WeatherDisplay:10.37,2013-01-31 13:26:00,
2013-01-31 08:31:00,40.1,25.6,29.35,SSW,202,15.0,15.0,56,0.00,CLR,CLR,0.18,WeatherDisplay:10.37,2013-01-31 13:31:00,
2013-01-31 08:36:00,40.3,25.8,29.35,WSW,248,12.7,12.7,56,0.00,CLR,CLR,0.18,WeatherDisplay:10.37,2013-01-31 13:36:00,
2013-01-31 08:41:00,40.1,25.6,29.36,SSE,158,6.9,6.9,56,0.00,CLR,CLR,0.18,WeatherDisplay:10.37,2013-01-31 13:41:00,
2013-01-31 08:46:00,39.9,25.0,29.36,WSW,248,29.7,29.7,55,0.00,CLR,CLR,0.18,WeatherDisplay:10.37,2013-01-31 13:46:00,
2013-01-31 08:51:00,39.9,25.0,29.36,WSW,248,10.4,10.4,55,0.00,CLR,CLR,0.18,WeatherDisplay:10.37,2013-01-31 13:51:00,
2013-01-31 08:56:00,40.3,25.8,29.36,SSE,158,17.3,17.3,56,0.00,CLR,CLR,0.18,WeatherDisplay:10.37,2013-01-31 13:56:00,
2013-01-31 09:01:00,40.8,25.9,29.36,NNW,338,6.9,6.9,55,0.00,CLR,CLR,0.18,WeatherDisplay:10.37,2013-01-31 14:01:00,
2013-01-31 09:07:00,41.4,25.9,29.38,SSW,202,16.1,16.1,54,0.00,CLR,CLR,0.18,WeatherDisplay:10.37,2013-01-31 14:07:00,
2013-01-31 09:12:00,41.7,25.8,29.38,SSW,202,11.8,11.8,53,0.00,CLR,CLR,0.18,WeatherDisplay:10.37,2013-01-31 14:12:00,
2013-01-31 09:17:00,42.1,26.2,29.39,WSW,248,12.7,12.7,53,0.00,CLR,CLR,0.18,WeatherDisplay:10.37,2013-01-31 14:17:00,
2013-01-31 09:22:00,42.6,27.1,29.40,SSW,202,21.9,21.9,54,0.00,CLR,CLR,0.18,WeatherDisplay:10.37,2013-01-31 14:22:00,
2013-01-31 09:27:00,42.6,26.7,29.41,South,180,13.8,13.8,53,0.00,CLR,CLR,0.18,WeatherDisplay:10.37,2013-01-31 14:27:00,
2013-01-31 09:32:00,41.2,26.2,29.41,South,180,17.0,17.0,55,0.00,CLR,CLR,0.18,WeatherDisplay:10.37,2013-01-31 14:32:00,
2013-01-31 09:37:00,40.1,25.2,29.42,SSW,202,15.0,15.0,55,0.00,CLR,CLR,0.18,WeatherDisplay:10.37,2013-01-31 14:37:00,
2013-01-31 09:43:00,40.1,26.5,29.41,SE,135,15.4,15.4,58,0.00,CLR,CLR,0.18,WeatherDisplay:10.37,2013-01-31 14:43:00,
2013-01-31 09:48:00,40.8,27.2,29.43,SSW,202,19.6,19.6,58,0.00,CLR,CLR,0.18,WeatherDisplay:10.37,2013-01-31 14:48:00,
2013-01-31 09:53:00,41.2,26.7,29.44,SSW,202,13.8,13.8,56,0.00,CLR,CLR,0.18,WeatherDisplay:10.37,2013-01-31 14:53:00,
2013-01-31 09:58:00,41.9,27.3,29.44,SSW,202,9.2,9.2,56,0.00,CLR,CLR,0.18,WeatherDisplay:10.37,2013-01-31 14:58:00,
2013-01-31 10:04:00,42.6,27.1,29.44,SW,225,14.1,14.1,54,0.00,CLR,CLR,0.18,WeatherDisplay:10.37,2013-01-31 15:04:00,
2013-01-31 10:09:00,42.6,27.1,29.44,SSE,158,11.2,11.2,54,0.00,CLR,CLR,0.18,WeatherDisplay:10.37,2013-01-31 15:09:00,
2013-01-31 10:14:00,42.6,26.7,29.45,SSW,202,5.8,5.8,53,0.00,CLR,CLR,0.18,WeatherDisplay:10.37,2013-01-31 15:14:00,
2013-01-31 10:19:00,42.1,26.6,29.45,WSW,248,17.3,17.3,54,0.00,CLR,CLR,0.18,WeatherDisplay:10.37,2013-01-31 15:19:00,
2013-01-31 10:24:00,41.5,26.1,29.45,SSW,202,17.3,17.3,54,0.00,CLR,CLR,0.18,WeatherDisplay:10.37,2013-01-31 15:24:00,
2013-01-31 10:30:00,41.2,25.8,29.45,SW,225,6.0,6.0,54,0.00,CLR,CLR,0.18,WeatherDisplay:10.37,2013-01-31 15:30:00,
2013-01-31 10:35:00,41.0,26.1,29.45,WSW,248,5.8,5.8,55,0.00,CLR,CLR,0.18,WeatherDisplay:10.37,2013-01-31 15:35:00,
2013-01-31 10:40:00,41.2,25.8,29.46,SW,225,6.9,6.9,54,0.00,CLR,CLR,0.18,WeatherDisplay:10.37,2013-01-31 15:40:00,
2013-01-31 10:45:00,40.8,25.4,29.46,SSW,202,6.9,6.9,54,0.00,CLR,CLR,0.18,WeatherDisplay:10.37,2013-01-31 15:45:00,
2013-01-31 10:50:00,41.0,25.6,29.46,WSW,248,5.8,5.8,54,0.00,CLR,CLR,0.18,WeatherDisplay:10.37,2013-01-31 15:50:00,
2013-01-31 10:55:00,40.8,25.9,29.46,WSW,248,4.6,4.6,55,0.00,CLR,CLR,0.18,WeatherDisplay:10.37,2013-01-31 15:55:00,
2013-01-31 11:00:00,40.6,25.7,29.46,South,180,1.6,1.6,55,0.00,CLR,CLR,0.18,WeatherDisplay:10.37,2013-01-31 16:00:00,
2013-01-31 11:05:00,40.8,25.9,29.47,South,180,18.4,18.4,55,0.00,CLR,CLR,0.18,WeatherDisplay:10.37,2013-01-31 16:05:00,
2013-01-31 11:10:00,41.0,25.6,29.47,West,270,18.4,18.4,54,0.00,CLR,CLR,0.18,WeatherDisplay:10.37,2013-01-31 16:10:00,
2013-01-31 11:16:00,41.4,25.9,29.48,SSW,202,10.4,10.4,54,0.00,CLR,CLR,0.18,WeatherDisplay:10.37,2013-01-31 16:16:00,
2013-01-31 11:21:00,41.7,26.3,29.48,South,180,6.5,6.5,54,0.00,CLR,CLR,0.18,WeatherDisplay:10.37,2013-01-31 16:21:00,
2013-01-31 11:26:00,42.6,26.7,29.48,WSW,248,19.6,19.6,53,0.00,CLR,CLR,0.18,WeatherDisplay:10.37,2013-01-31 16:26:00,
2013-01-31 11:32:00,43.2,27.2,29.48,SE,135,15.0,15.0,53,0.00,CLR,CLR,0.18,WeatherDisplay:10.37,2013-01-31 16:32:00,
2013-01-31 11:37:00,44.2,28.6,29.48,South,180,13.8,13.8,54,0.00,CLR,CLR,0.18,WeatherDisplay:10.37,2013-01-31 16:37:00,
2013-01-31 11:42:00,44.4,28.3,29.48,SSW,202,12.7,12.7,53,0.00,CLR,CLR,0.18,WeatherDisplay:10.37,2013-01-31 16:42:00,
2013-01-31 11:47:00,44.1,27.1,29.48,SSE,158,11.5,11.5,51,0.00,CLR,CLR,0.18,WeatherDisplay:10.37,2013-01-31 16:47:00,
2013-01-31 11:52:00,43.3,26.9,29.48,SW,225,10.4,10.4,52,0.00,CLR,CLR,0.18,WeatherDisplay:10.37,2013-01-31 16:52:00,
2013-01-31 11:57:00,43.3,27.3,29.49,SSW,202,13.8,13.8,53,0.00,CLR,CLR,0.18,WeatherDisplay:10.37,2013-01-31 16:57:00,
2013-01-31 12:03:00,44.4,28.3,29.48,SW,225,10.4,10.4,53,0.00,CLR,CLR,0.18,WeatherDisplay:10.37,2013-01-31 17:03:00,
2013-01-31 12:08:00,45.1,29.5,29.49,WSW,248,13.8,13.8,54,0.00,CLR,CLR,0.18,WeatherDisplay:10.37,2013-01-31 17:08:00,
2013-01-31 12:13:00,45.3,29.2,29.49,South,180,12.7,12.7,53,0.00,CLR,CLR,0.18,WeatherDisplay:10.37,2013-01-31 17:13:00,
2013-01-31 12:18:00,44.8,28.7,29.49,South,180,10.4,10.4,53,0.00,CLR,CLR,0.18,WeatherDisplay:10.37,2013-01-31 17:18:00,
2013-01-31 12:23:00,43.3,27.8,29.50,SSE,158,23.0,23.0,54,0.00,CLR,CLR,0.18,WeatherDisplay:10.37,2013-01-31 17:23:00,
2013-01-31 12:28:00,42.6,28.0,29.49,South,180,8.1,8.1,56,0.00,CLR,CLR,0.18,WeatherDisplay:10.37,2013-01-31 17:28:00,
2013-01-31 12:33:00,42.6,28.4,29.50,WSW,248,11.5,11.5,57,0.00,CLR,CLR,0.18,WeatherDisplay:10.37,2013-01-31 17:33:00,
2013-01-31 12:39:00,43.2,28.9,29.50,SSW,202,4.6,4.6,57,0.00,CLR,CLR,0.18,WeatherDisplay:10.37,2013-01-31 17:39:00,
2013-01-31 12:44:00,43.2,28.5,29.50,South,180,9.2,9.2,56,0.00,CLR,CLR,0.18,WeatherDisplay:10.37,2013-01-31 17:44:00,
2013-01-31 12:49:00,42.6,26.7,29.50,SW,225,17.3,17.3,53,0.00,CLR,CLR,0.18,WeatherDisplay:10.37,2013-01-31 17:49:00,
2013-01-31 12:54:00,42.4,26.5,29.50,SSW,202,10.4,10.4,53,0.00,CLR,CLR,0.18,WeatherDisplay:10.37,2013-01-31 17:54:00,
2013-01-31 12:59:00,41.7,25.8,29.50,SW,225,17.3,17.3,53,0.00,CLR,CLR,0.18,WeatherDisplay:10.37,2013-01-31 17:59:00,
2013-01-31 13:05:00,41.4,25.9,29.51,SSW,202,23.0,23.0,54,0.00,CLR,CLR,0.18,WeatherDisplay:10.37,2013-01-31 18:05:00,
2013-01-31 13:10:00,40.8,25.0,29.51,South,180,20.7,20.7,53,0.00,CLR,CLR,0.18,WeatherDisplay:10.37,2013-01-31 18:10:00,
2013-01-31 13:15:00,40.3,24.5,29.51,SE,135,15.0,15.0,53,0.00,CLR,CLR,0.18,WeatherDisplay:10.37,2013-01-31 18:15:00,
2013-01-31 13:20:00,39.9,24.6,29.51,South,180,13.8,13.8,54,0.00,CLR,CLR,0.18,WeatherDisplay:10.37,2013-01-31 18:20:00,
2013-01-31 13:25:00,40.3,24.5,29.51,SSW,202,23.7,23.7,53,0.00,CLR,CLR,0.18,WeatherDisplay:10.37,2013-01-31 18:25:00,
2013-01-31 13:31:00,40.5,24.2,29.52,SW,225,12.7,12.7,52,0.00,CLR,CLR,0.18,WeatherDisplay:10.37,2013-01-31 18:31:00,
2013-01-31 13:36:00,40.3,23.6,29.52,SSW,202,25.3,25.3,51,0.00,CLR,CLR,0.18,WeatherDisplay:10.37,2013-01-31 18:36:00,
2013-01-31 13:41:00,39.7,22.1,29.52,WSW,248,18.4,18.4,49,0.00,CLR,CLR,0.18,WeatherDisplay:10.37,2013-01-31 18:41:00,
2013-01-31 13:46:00,39.0,21.9,29.53,SW,225,16.1,16.1,50,0.00,CLR,CLR,0.18,WeatherDisplay:10.37,2013-01-31 18:46:00,
2013-01-31 13:51:00,38.5,21.4,29.52,SE,135,13.8,13.8,50,0.00,CLR,CLR,0.18,WeatherDisplay:10.37,2013-01-31 18:51:00,
2013-01-31 13:56:00,38.1,21.1,29.52,ESE,112,11.2,11.2,50,0.00,CLR,CLR,0.18,WeatherDisplay:10.37,2013-01-31 18:56:00,
2013-01-31 14:01:00,38.5,21.4,29.52,South,180,11.5,11.5,50,0.00,CLR,CLR,0.18,WeatherDisplay:10.37,2013-01-31 19:01:00,
2013-01-31 14:07:00,38.3,21.7,29.52,SSE,158,15.0,15.0,51,0.00,CLR,CLR,0.18,WeatherDisplay:10.37,2013-01-31 19:07:00,
2013-01-31 14:12:00,38.8,22.2,29.52,SE,135,19.6,19.6,51,0.00,CLR,CLR,0.18,WeatherDisplay:10.37,2013-01-31 19:12:00,
2013-01-31 14:17:00,38.8,22.2,29.52,WSW,248,19.6,19.6,51,0.00,CLR,CLR,0.18,WeatherDisplay:10.37,2013-01-31 19:17:00,
2013-01-31 14:22:00,38.8,22.2,29.52,SSE,158,16.1,16.1,51,0.00,CLR,CLR,0.18,WeatherDisplay:10.37,2013-01-31 19:22:00,
2013-01-31 14:28:00,38.5,22.4,29.52,SSW,202,12.7,12.7,52,0.00,CLR,CLR,0.18,WeatherDisplay:10.37,2013-01-31 19:28:00,
2013-01-31 14:33:00,38.1,22.0,29.52,SW,225,15.0,15.0,52,0.00,CLR,CLR,0.18,WeatherDisplay:10.37,2013-01-31 19:33:00,
2013-01-31 14:38:00,38.5,22.4,29.52,South,180,10.4,10.4,52,0.00,CLR,CLR,0.18,WeatherDisplay:10.37,2013-01-31 19:38:00,
2013-01-31 14:43:00,38.5,21.9,29.52,SSW,202,8.1,8.1,51,0.00,CLR,CLR,0.18,WeatherDisplay:10.37,2013-01-31 19:43:00,
2013-01-31 14:48:00,38.5,21.9,29.53,SSW,202,11.4,11.4,51,0.00,CLR,CLR,0.18,WeatherDisplay:10.37,2013-01-31 19:48:00,
2013-01-31 14:53:00,38.3,21.7,29.53,SW,225,13.8,13.8,51,0.00,CLR,CLR,0.18,WeatherDisplay:10.37,2013-01-31 19:53:00,
2013-01-31 14:59:00,37.9,20.9,29.54,WSW,248,16.1,16.1,50,0.00,CLR,CLR,0.18,WeatherDisplay:10.37,2013-01-31 19:59:00,
2013-01-31 15:04:00,37.8,21.2,29.54,SSW,202,11.5,11.5,51,0.00,CLR,CLR,0.18,WeatherDisplay:10.37,2013-01-31 20:04:00,
2013-01-31 15:09:00,37.6,21.1,29.54,South,180,10.4,10.4,51,0.00,CLR,CLR,0.18,WeatherDisplay:10.37,2013-01-31 20:09:00,
2013-01-31 15:14:00,37.2,20.7,29.55,SSW,202,12.7,12.7,51,0.00,CLR,CLR,0.18,WeatherDisplay:10.37,2013-01-31 20:14:00,
2013-01-31 15:19:00,37.0,21.0,29.56,SSW,202,6.9,6.9,52,0.00,CLR,CLR,0.18,WeatherDisplay:10.37,2013-01-31 20:19:00,
2013-01-31 15:24:00,36.9,22.2,29.56,South,180,13.8,14.0,55,0.00,CLR,CLR,0.18,WeatherDisplay:10.37,2013-01-31 20:24:00,
2013-01-31 15:30:00,37.0,22.8,29.56,SSW,202,14.1,14.1,56,0.00,CLR,CLR,0.18,WeatherDisplay:10.37,2013-01-31 20:30:00,
2013-01-31 15:35:00,37.0,22.4,29.56,SSW,202,17.3,17.3,55,0.00,CLR,CLR,0.18,WeatherDisplay:10.37,2013-01-31 20:35:00,
2013-01-31 15:40:00,36.9,21.7,29.55,South,180,6.3,6.3,54,0.00,CLR,CLR,0.18,WeatherDisplay:10.37,2013-01-31 20:40:00,
2013-01-31 15:45:00,37.0,21.9,29.55,ESE,112,9.2,9.2,54,0.00,CLR,CLR,0.18,WeatherDisplay:10.37,2013-01-31 20:45:00,
2013-01-31 15:50:00,37.0,21.9,29.55,SSW,202,10.4,10.4,54,0.00,CLR,CLR,0.18,WeatherDisplay:10.37,2013-01-31 20:50:00,
2013-01-31 15:55:00,36.9,21.3,29.56,SSW,202,21.9,21.9,53,0.00,CLR,CLR,0.18,WeatherDisplay:10.37,2013-01-31 20:55:00,
2013-01-31 16:01:00,36.7,21.1,29.57,South,180,13.8,13.8,53,0.00,CLR,CLR,0.18,WeatherDisplay:10.37,2013-01-31 21:01:00,
2013-01-31 16:06:00,36.3,20.8,29.57,SSW,202,11.5,11.5,53,0.00,CLR,CLR,0.18,WeatherDisplay:10.37,2013-01-31 21:06:00,
2013-01-31 16:11:00,36.1,21.5,29.57,SSW,202,11.5,11.5,55,0.00,CLR,CLR,0.18,WeatherDisplay:10.37,2013-01-31 21:11:00,
2013-01-31 16:16:00,36.1,21.5,29.57,SSE,158,10.4,10.4,55,0.00,CLR,CLR,0.18,WeatherDisplay:10.37,2013-01-31 21:16:00,
2013-01-31 16:21:00,36.0,21.3,29.57,SSW,202,21.9,21.9,55,0.00,CLR,CLR,0.18,WeatherDisplay:10.37,2013-01-31 21:21:00,
2013-01-31 16:26:00,35.8,21.2,29.58,SW,225,10.4,10.4,55,0.00,CLR,CLR,0.18,WeatherDisplay:10.37,2013-01-31 21:26:00,
2013-01-31 16:31:00,35.4,20.8,29.58,SW,225,13.8,13.8,55,0.00,CLR,CLR,0.18,WeatherDisplay:10.37,2013-01-31 21:31:00,
2013-01-31 16:36:00,35.4,20.8,29.58,SE,135,20.7,20.7,55,0.00,CLR,CLR,0.18,WeatherDisplay:10.37,2013-01-31 21:36:00,
2013-01-31 16:41:00,35.2,20.7,29.59,SE,135,13.9,13.9,55,0.00,CLR,CLR,0.18,WeatherDisplay:10.37,2013-01-31 21:41:00,
2013-01-31 16:47:00,35.2,20.2,29.59,SE,135,18.4,18.4,54,0.00,CLR,CLR,0.18,WeatherDisplay:10.37,2013-01-31 21:47:00,
2013-01-31 16:52:00,35.1,19.6,29.58,South,180,21.2,21.2,53,0.00,CLR,CLR,0.18,WeatherDisplay:10.37,2013-01-31 21:52:00,
2013-01-31 16:57:00,34.9,19.5,29.59,WSW,248,13.4,13.4,53,0.00,CLR,CLR,0.18,WeatherDisplay:10.37,2013-01-31 21:57:00,
2013-01-31 17:02:00,34.9,19.5,29.59,SSW,202,15.0,15.0,53,0.00,CLR,CLR,0.18,WeatherDisplay:10.37,2013-01-31 22:02:00,
2013-01-31 17:08:00,34.5,19.1,29.60,SW,225,19.6,19.6,53,0.00,CLR,CLR,0.18,WeatherDisplay:10.37,2013-01-31 22:08:00,
2013-01-31 17:13:00,34.3,19.0,29.61,SW,225,11.5,11.5,53,0.00,CLR,CLR,0.18,WeatherDisplay:10.37,2013-01-31 22:13:00,
2013-01-31 17:18:00,34.3,19.4,29.62,SW,225,17.3,17.3,54,0.00,CLR,CLR,0.18,WeatherDisplay:10.37,2013-01-31 22:18:00,
2013-01-31 17:23:00,34.3,19.4,29.62,SW,225,7.2,7.2,54,0.00,CLR,CLR,0.18,WeatherDisplay:10.37,2013-01-31 22:23:00,
2013-01-31 17:29:00,34.0,19.5,29.63,SSW,202,15.0,15.0,55,0.00,CLR,CLR,0.18,WeatherDisplay:10.37,2013-01-31 22:29:00,
2013-01-31 17:34:00,33.6,19.2,29.63,SSW,202,20.7,20.7,55,0.00,CLR,CLR,0.18,WeatherDisplay:10.37,2013-01-31 22:34:00,
2013-01-31 17:39:00,33.4,18.6,29.64,SW,225,16.1,16.1,54,0.00,CLR,CLR,0.18,WeatherDisplay:10.37,2013-01-31 22:39:00,
2013-01-31 17:45:00,33.1,18.2,29.64,SSW,202,9.8,9.8,54,0.00,CLR,CLR,0.18,WeatherDisplay:10.37,2013-01-31 22:45:00,
2013-01-31 17:50:00,32.7,17.9,29.64,SSW,202,9.2,9.2,54,0.00,CLR,CLR,0.18,WeatherDisplay:10.37,2013-01-31 22:50:00,
2013-01-31 17:55:00,32.7,17.9,29.64,SW,225,14.7,14.7,54,0.00,CLR,CLR,0.18,WeatherDisplay:10.37,2013-01-31 22:55:00,
2013-01-31 18:00:00,32.5,17.3,29.65,WSW,248,12.7,12.7,53,0.00,CLR,CLR,0.18,WeatherDisplay:10.37,2013-01-31 23:00:00,
2013-01-31 18:05:00,32.2,16.9,29.66,SSW,202,10.5,10.5,53,0.00,CLR,CLR,0.18,WeatherDisplay:10.37,2013-01-31 23:05:00,
2013-01-31 18:11:00,32.2,16.9,29.67,NW,315,12.7,12.7,53,0.00,CLR,CLR,0.18,WeatherDisplay:10.37,2013-01-31 23:11:00,
2013-01-31 18:16:00,31.8,16.2,29.67,SSW,202,5.8,5.8,52,0.00,CLR,CLR,0.18,WeatherDisplay:10.37,2013-01-31 23:16:00,
2013-01-31 18:21:00,31.6,16.4,29.67,SSW,202,9.6,9.6,53,0.00,CLR,CLR,0.18,WeatherDisplay:10.37,2013-01-31 23:21:00,
2013-01-31 18:26:00,31.3,15.7,29.68,WSW,248,12.7,12.7,52,0.00,CLR,CLR,0.18,WeatherDisplay:10.37,2013-01-31 23:26:00,
2013-01-31 18:31:00,31.3,15.2,29.67,SW,225,8.9,8.9,51,0.00,CLR,CLR,0.18,WeatherDisplay:10.37,2013-01-31 23:31:00,
2013-01-31 18:36:00,30.9,14.9,29.68,West,270,11.5,11.5,51,0.00,CLR,CLR,0.18,WeatherDisplay:10.37,2013-01-31 23:36:00,
2013-01-31 18:42:00,30.9,14.9,29.68,WSW,248,5.8,5.8,51,0.00,CLR,CLR,0.18,WeatherDisplay:10.37,2013-01-31 23:42:00,
2013-01-31 18:47:00,30.7,14.7,29.68,WSW,248,4.6,4.6,51,0.00,CLR,CLR,0.18,WeatherDisplay:10.37,2013-01-31 23:47:00,
2013-01-31 18:52:00,30.6,14.6,29.68,SE,135,4.6,4.6,51,0.00,CLR,CLR,0.18,WeatherDisplay:10.37,2013-01-31 23:52:00,
2013-01-31 18:57:00,30.4,14.8,29.68,West,270,8.1,8.1,52,0.00,CLR,CLR,0.18,WeatherDisplay:10.37,2013-01-31 23:57:00,
2013-01-31 19:02:00,30.2,14.7,29.68,SE,135,10.4,10.4,52,0.00,CLR,CLR,0.18,WeatherDisplay:10.37,2013-02-01 00:02:00,
2013-01-31 19:08:00,30.2,14.7,29.68,West,270,8.1,8.1,52,0.00,CLR,CLR,0.18,WeatherDisplay:10.37,2013-02-01 00:08:00,
2013-01-31 19:13:00,30.0,14.1,29.69,SSW,202,13.8,13.8,51,0.00,CLR,CLR,0.18,WeatherDisplay:10.37,2013-02-01 00:13:00,
2013-01-31 19:18:00,30.0,14.1,29.68,SW,225,9.2,9.2,51,0.00,CLR,CLR,0.18,WeatherDisplay:10.37,2013-02-01 00:18:00,
2013-01-31 19:23:00,30.0,14.1,29.69,SW,225,9.2,9.2,51,0.00,CLR,CLR,0.18,WeatherDisplay:10.37,2013-02-01 00:23:00,
2013-01-31 19:28:00,30.0,13.6,29.68,ENE,68,10.4,10.4,50,0.00,CLR,CLR,0.18,WeatherDisplay:10.37,2013-02-01 00:28:00,
2013-01-31 19:34:00,30.0,13.6,29.69,SSW,202,9.2,9.2,50,0.00,CLR,CLR,0.18,WeatherDisplay:10.37,2013-02-01 00:34:00,
2013-01-31 19:39:00,30.0,13.6,29.69,WNW,292,4.6,4.6,50,0.00,CLR,CLR,0.18,WeatherDisplay:10.37,2013-02-01 00:39:00,
2013-01-31 19:44:00,30.0,13.6,29.68,SSW,202,0.0,0.0,50,0.00,CLR,CLR,0.18,WeatherDisplay:10.37,2013-02-01 00:44:00,
2013-01-31 19:49:00,29.8,13.9,29.68,WSW,248,0.0,0.0,51,0.00,CLR,CLR,0.18,WeatherDisplay:10.37,2013-02-01 00:49:00,
2013-01-31 19:54:00,29.5,13.6,29.68,SSW,202,5.8,5.8,51,0.00,CLR,CLR,0.18,WeatherDisplay:10.37,2013-02-01 00:54:00,
2013-01-31 20:00:00,29.3,13.4,29.68,SSE,158,2.3,2.8,51,0.00,CLR,CLR,0.18,WeatherDisplay:10.37,2013-02-01 01:00:00,
2013-01-31 20:05:00,29.1,13.7,29.68,SSW,202,6.9,6.9,52,0.00,CLR,CLR,0.18,WeatherDisplay:10.37,2013-02-01 01:05:00,
2013-01-31 20:10:00,29.1,13.7,29.68,SSW,202,1.2,1.2,52,0.00,CLR,CLR,0.18,WeatherDisplay:10.37,2013-02-01 01:10:00,
2013-01-31 20:15:00,28.9,13.9,29.69,South,180,8.5,8.5,53,0.00,CLR,CLR,0.18,WeatherDisplay:10.37,2013-02-01 01:15:00,
2013-01-31 20:20:00,28.9,13.9,29.69,SSW,202,4.6,4.6,53,0.00,CLR,CLR,0.18,WeatherDisplay:10.37,2013-02-01 01:20:00,
2013-01-31 20:25:00,28.9,13.9,29.68,WSW,248,7.4,7.4,53,0.00,CLR,CLR,0.18,WeatherDisplay:10.37,2013-02-01 01:25:00,
2013-01-31 20:30:00,28.9,13.9,29.68,SW,225,12.7,12.7,53,0.00,CLR,CLR,0.18,WeatherDisplay:10.37,2013-02-01 01:30:00,
2013-01-31 20:35:00,28.9,13.9,29.68,SE,135,8.1,8.1,53,0.00,CLR,CLR,0.18,WeatherDisplay:10.37,2013-02-01 01:35:00,
2013-01-31 20:41:00,29.1,14.1,29.67,SSW,202,5.8,0.0,53,0.00,CLR,CLR,0.18,WeatherDisplay:10.37,2013-02-01 01:41:00,
2013-01-31 20:46:00,28.9,14.4,29.67,SW,225,2.3,2.3,54,0.00,CLR,CLR,0.18,WeatherDisplay:10.37,2013-02-01 01:46:00,
2013-01-31 20:51:00,28.8,14.2,29.67,SSW,202,3.5,3.5,54,0.00,CLR,CLR,0.18,WeatherDisplay:10.37,2013-02-01 01:51:00,
2013-01-31 20:56:00,28.6,14.0,29.68,SSW,202,3.5,3.5,54,0.00,CLR,CLR,0.18,WeatherDisplay:10.37,2013-02-01 01:56:00,
2013-01-31 21:01:00,28.6,14.0,29.68,SSW,202,0.0,0.0,54,0.00,CLR,CLR,0.18,WeatherDisplay:10.37,2013-02-01 02:01:00,
2013-01-31 21:07:00,28.6,14.0,29.68,SSW,202,11.5,11.5,54,0.00,CLR,CLR,0.18,WeatherDisplay:10.37,2013-02-01 02:07:00,
2013-01-31 21:12:00,28.6,14.0,29.68,SW,225,3.1,0.0,54,0.00,CLR,CLR,0.18,WeatherDisplay:10.37,2013-02-01 02:12:00,
2013-01-31 21:17:00,28.6,14.0,29.68,SSW,202,8.1,8.1,54,0.00,CLR,CLR,0.18,WeatherDisplay:10.37,2013-02-01 02:17:00,
2013-01-31 21:22:00,28.6,14.4,29.68,WSW,248,6.9,6.9,55,0.00,CLR,CLR,0.18,WeatherDisplay:10.37,2013-02-01 02:22:00,
2013-01-31 21:27:00,28.6,14.4,29.68,South,180,13.8,13.8,55,0.00,CLR,CLR,0.18,WeatherDisplay:10.37,2013-02-01 02:27:00,
2013-01-31 21:32:00,28.6,14.4,29.68,South,180,6.9,6.9,55,0.00,CLR,CLR,0.18,WeatherDisplay:10.37,2013-02-01 02:32:00,
2013-01-31 21:38:00,28.8,14.6,29.68,South,180,6.7,6.7,55,0.00,CLR,CLR,0.18,WeatherDisplay:10.37,2013-02-01 02:38:00,
2013-01-31 21:43:00,28.9,14.8,29.68,SSW,202,5.6,5.6,55,0.00,CLR,CLR,0.18,WeatherDisplay:10.37,2013-02-01 02:43:00,
2013-01-31 21:48:00,28.9,14.8,29.68,WSW,248,5.8,5.8,55,0.00,CLR,CLR,0.18,WeatherDisplay:10.37,2013-02-01 02:48:00,
2013-01-31 21:53:00,29.1,14.9,29.68,NNW,338,1.2,0.0,55,0.00,CLR,CLR,0.18,WeatherDisplay:10.37,2013-02-01 02:53:00,
2013-01-31 21:59:00,29.1,14.9,29.69,SE,135,4.6,4.6,55,0.00,CLR,CLR,0.18,WeatherDisplay:10.37,2013-02-01 02:59:00,
2013-01-31 22:04:00,29.1,14.9,29.69,SSW,202,8.1,8.1,55,0.00,CLR,CLR,0.18,WeatherDisplay:10.37,2013-02-01 03:04:00,
2013-01-31 22:09:00,29.1,14.9,29.69,SW,225,3.5,3.5,55,0.00,CLR,CLR,0.18,WeatherDisplay:10.37,2013-02-01 03:09:00,
2013-01-31 22:14:00,29.3,15.1,29.69,SW,225,6.9,6.9,55,0.00,CLR,CLR,0.18,WeatherDisplay:10.37,2013-02-01 03:14:00,
2013-01-31 22:19:00,29.7,15.5,29.69,West,270,8.5,8.5,55,0.00,CLR,CLR,0.18,WeatherDisplay:10.37,2013-02-01 03:19:00,
2013-01-31 22:24:00,29.8,16.0,29.69,SSW,202,10.4,10.4,56,0.00,CLR,CLR,0.18,WeatherDisplay:10.37,2013-02-01 03:24:00,
2013-01-31 22:30:00,30.0,15.8,29.69,SSW,202,10.4,10.4,55,0.00,CLR,CLR,0.18,WeatherDisplay:10.37,2013-02-01 03:30:00,
2013-01-31 22:35:00,30.0,16.2,29.69,SSE,158,3.5,3.5,56,0.00,CLR,CLR,0.18,WeatherDisplay:10.37,2013-02-01 03:35:00,
2013-01-31 22:40:00,30.0,15.8,29.69,SW,225,8.1,8.1,55,0.00,CLR,CLR,0.18,WeatherDisplay:10.37,2013-02-01 03:40:00,
2013-01-31 22:45:00,29.8,16.0,29.68,WSW,248,12.7,12.7,56,0.00,CLR,CLR,0.18,WeatherDisplay:10.37,2013-02-01 03:45:00,
2013-01-31 22:50:00,29.8,16.0,29.69,South,180,2.3,0.0,56,0.00,CLR,CLR,0.18,WeatherDisplay:10.37,2013-02-01 03:50:00,
2013-01-31 22:56:00,29.8,16.0,29.68,SSW,202,8.5,8.5,56,0.00,CLR,CLR,0.18,WeatherDisplay:10.37,2013-02-01 03:56:00,
2013-01-31 23:01:00,29.8,16.0,29.68,WSW,248,0.0,0.0,56,0.00,CLR,CLR,0.18,WeatherDisplay:10.37,2013-02-01 04:01:00,
2013-01-31 23:06:00,29.7,15.9,29.68,SW,225,6.9,6.9,56,0.00,CLR,CLR,0.18,WeatherDisplay:10.37,2013-02-01 04:06:00,
2013-01-31 23:11:00,29.5,15.7,29.67,West,270,8.1,8.1,56,0.00,CLR,CLR,0.18,WeatherDisplay:10.37,2013-02-01 04:11:00,
2013-01-31 23:16:00,29.5,15.7,29.67,WSW,248,1.2,1.2,56,0.00,CLR,CLR,0.18,WeatherDisplay:10.37,2013-02-01 04:16:00,
2013-01-31 23:22:00,29.3,15.5,29.67,SSW,202,4.6,0.0,56,0.00,CLR,CLR,0.18,WeatherDisplay:10.37,2013-02-01 04:22:00,
2013-01-31 23:27:00,29.3,15.5,29.68,SW,225,4.0,0.0,56,0.00,CLR,CLR,0.18,WeatherDisplay:10.37,2013-02-01 04:27:00,
2013-01-31 23:32:00,29.3,15.5,29.68,SW,225,5.8,5.8,56,0.00,CLR,CLR,0.18,WeatherDisplay:10.37,2013-02-01 04:32:00,
2013-01-31 23:37:00,29.1,15.4,29.68,SW,225,5.8,5.8,56,0.00,CLR,CLR,0.18,WeatherDisplay:10.37,2013-02-01 04:37:00,
2013-01-31 23:43:00,29.3,15.5,29.67,SSW,202,6.9,6.9,56,0.00,CLR,CLR,0.18,WeatherDisplay:10.37,2013-02-01 04:43:00,
2013-01-31 23:48:00,29.1,15.4,29.67,SW,225,0.0,0.0,56,0.00,CLR,CLR,0.18,WeatherDisplay:10.37,2013-02-01 04:48:00,
2013-01-31 23:53:00,29.1,15.8,29.67,SSW,202,5.1,5.1,57,0.00,CLR,CLR,0.18,WeatherDisplay:10.37,2013-02-01 04:53:00,
2013-01-31 23:58:00,29.1,15.8,29.67,South,180,3.5,3.5,57,0.00,CLR,CLR,0.18,WeatherDisplay:10.37,2013-02-01 04:58:00,